Location: Newark
(58.8333°N, 23.5833°E)
Time: 15:20:00
(UTC+00:00)

Explorer 7 - Pass Details

Date: 16 November 2019
Orbit: 485 x 680 km, 50.3° (Epoch: 06 December)

Event Time Altitude Azimuth Distance (km) Brightness Sun altitude
Rises 02:13:31 0° 246° (WSW) 2,819 - -30.8°
Reaches altitude 10° 02:16:08 10° 233° (SW) 1,880 - -30.5°
Maximum altitude 02:19:39 25° 178° (S) 1,129 - -30.1°
Exits shadow 02:22:00 15° 132° (SE) 1,481 9.3 -29.8°
Drops below altitude 10° 02:23:01 10° 122° (ESE) 1,783 9.9 -29.7°
Sets 02:25:25 0° 109° (ESE) 2,641 11.1 -29.3°
